Location: Saratoga Springs
(43.0831°N, 73.7850°W)
Time: 05:49:49
(UTC-04:00)

Vanguard 2 - Pass Details

Date: 22 April 2024
Orbit: 553 x 2914 km, 32.9° (Epoch: 17 May)

Event Time Altitude Azimuth Distance (km) Brightness Sun altitude
Rises 03:33:43 0° 250° (WSW) 5,900 - -23.5°
Reaches altitude 10° 03:37:18 10° 247° (WSW) 5,132 - -23.1°
Exits shadow 03:42:48 28° 238° (WSW) 4,100 10.6 -22.4°
Maximum altitude 03:52:54 59° 174° (S) 3,218 10.4 -21.1°
Drops below altitude 10° 04:09:39 10° 101° (E) 5,464 12.4 -18.7°
Sets 04:13:36 0° 98° (E) 6,288 12.9 -18.2°
